• In Belgium
  • List of Countries
  • For 7 days
  • Water Temperature
  • Satellite Maps
  • Weather Map
  • Weather Widgets
  • user-avatar
    Login

    Hourly Weather Mouscron

    Today, 25 April, Wednesday

    Time Temperature Precipitation Wind Pressure Humidity
    00:00 +11°C° 0 mm 6 mps 754 mmHg 86%
    01:00 +11°C° 0 mm 6 mps 754 mmHg 86%
    02:00 +11°C° 0 mm 6 mps 754 mmHg 86%
    03:00 +10°C° 0 mm 7 mps 754 mmHg 87%
    04:00 +10°C° 0.1 mm 6 mps 754 mmHg 86%
    05:00 +10°C° 0.1 mm 6 mps 754 mmHg 85%
    06:00 +10°C° 0.1 mm 5 mps 755 mmHg 84%
    07:00 +11°C° 0 mm 6 mps 755 mmHg 80%
    08:00 +11°C° 0 mm 6 mps 756 mmHg 76%
    09:00 +13°C° 0 mm 6 mps 756 mmHg 72%
    10:00 +13°C° 0.2 mm 6 mps 756 mmHg 69%
    11:00 +14°C° 0.2 mm 7 mps 756 mmHg 66%
    12:00 +14°C° 0.2 mm 7 mps 756 mmHg 63%
    13:00 +14°C° 0.1 mm 7 mps 756 mmHg 61%
    14:00 +13°C° 0.1 mm 8 mps 756 mmHg 60%
    15:00 +13°C° 0.1 mm 8 mps 756 mmHg 58%
    16:00 +12°C° 0 mm 8 mps 756 mmHg 62%
    17:00 +11°C° 0 mm 7 mps 756 mmHg 66%
    18:00 +10°C° 0 mm 6 mps 756 mmHg 70%
    19:00 +9°C° 0 mm 6 mps 757 mmHg 74%
    20:00 +8°C° 0 mm 6 mps 757 mmHg 77%
    21:00 +8°C° 0 mm 6 mps 758 mmHg 80%
    22:00 +7°C° 0 mm 6 mps 758 mmHg 80%
    23:00 +7°C° 0 mm 6 mps 758 mmHg 81%

    Tomorrow, 26 April, Thursday

    Time Temperature Precipitation Wind Pressure Humidity
    00:00 +7°C° 0 mm 5 mps 758 mmHg 81%
    01:00 +7°C° 0 mm 5 mps 758 mmHg 82%
    02:00 +6°C° 0 mm 5 mps 758 mmHg 82%
    03:00 +6°C° 0 mm 5 mps 758 mmHg 83%
    04:00 +6°C° 0 mm 5 mps 759 mmHg 82%
    05:00 +6°C° 0 mm 5 mps 759 mmHg 81%
    06:00 +7°C° 0 mm 6 mps 759 mmHg 80%
    07:00 +8°C° 0 mm 6 mps 759 mmHg 74%
    08:00 +9°C° 0 mm 6 mps 760 mmHg 68%
    09:00 +10°C° 0 mm 7 mps 760 mmHg 62%
    10:00 +11°C° 0.1 mm 7 mps 760 mmHg 59%
    11:00 +12°C° 0.1 mm 7 mps 760 mmHg 57%
    12:00 +12°C° 0.1 mm 7 mps 760 mmHg 54%
    13:00 +12°C° 0.1 mm 7 mps 760 mmHg 54%
    14:00 +12°C° 0.1 mm 7 mps 759 mmHg 54%
    15:00 +12°C° 0.1 mm 7 mps 759 mmHg 54%
    16:00 +11°C° 0 mm 6 mps 759 mmHg 58%
    17:00 +10°C° 0 mm 5 mps 759 mmHg 63%
    18:00 +11°C° 0 mm 4 mps 759 mmHg 67%
    19:00 +8°C° 0 mm 4 mps 759 mmHg 71%
    20:00 +8°C° 0 mm 3 mps 760 mmHg 74%
    21:00 +7°C° 0 mm 3 mps 760 mmHg 78%
    22:00 +7°C° 0 mm 3 mps 759 mmHg 79%
    23:00 +5°C° 0 mm 3 mps 759 mmHg 80%

    Day after tomorrow, 27 April, Friday

    Time Temperature Precipitation Wind Pressure Humidity
    00:00 +6°C° 0 mm 2 mps 758 mmHg 81%
    01:00 +5°C° 0 mm 3 mps 758 mmHg 80%
    02:00 +5°C° 0 mm 3 mps 757 mmHg 80%
    03:00 +5°C° 0 mm 3 mps 756 mmHg 79%
    04:00 +5°C° 0 mm 3 mps 756 mmHg 79%
    05:00 +6°C° 0 mm 4 mps 755 mmHg 79%
    06:00 +6°C° 0 mm 4 mps 755 mmHg 78%
    07:00 +8°C° 0 mm 5 mps 754 mmHg 74%
    08:00 +10°C° 0 mm 6 mps 754 mmHg 70%
    09:00 +11°C° 0 mm 7 mps 754 mmHg 66%
    10:00 +12°C° 0 mm 7 mps 753 mmHg 63%
    11:00 +14°C° 0 mm 7 mps 752 mmHg 60%
    12:00 +15°C° 0 mm 8 mps 752 mmHg 58%
    13:00 +15°C° 0.1 mm 8 mps 752 mmHg 60%
    14:00 +15°C° 0.1 mm 8 mps 751 mmHg 62%
    15:00 +15°C° 0.1 mm 8 mps 751 mmHg 64%
    16:00 +13°C° 0.1 mm 8 mps 751 mmHg 66%
    17:00 +12°C° 0.1 mm 8 mps 751 mmHg 68%
    18:00 +11°C° 0.1 mm 8 mps 751 mmHg 70%
    19:00 +10°C° 0 mm 8 mps 751 mmHg 71%
    20:00 +9°C° 0 mm 8 mps 752 mmHg 73%
    21:00 +7°C° 0 mm 8 mps 752 mmHg 74%
    22:00 +8°C° 0 mm 7 mps 753 mmHg 76%
    23:00 +8°C° 0 mm 6 mps 753 mmHg 79%

    28 April, Saturday

    Time Temperature Precipitation Wind Pressure Humidity
    00:00 +7°C° 0 mm 6 mps 753 mmHg 81%
    01:00 +7°C° 0 mm 5 mps 754 mmHg 83%
    02:00 +7°C° 0 mm 5 mps 754 mmHg 84%
    03:00 +7°C° 0 mm 4 mps 754 mmHg 86%
    04:00 +7°C° 0 mm 4 mps 755 mmHg 85%
    05:00 +7°C° 0 mm 4 mps 755 mmHg 84%
    06:00 +8°C° 0 mm 3 mps 755 mmHg 83%
    07:00 +8°C° 0 mm 3 mps 756 mmHg 79%
    08:00 +9°C° 0 mm 3 mps 756 mmHg 74%
    09:00 +10°C° 0 mm 3 mps 757 mmHg 70%
    10:00 +10°C° 0 mm 2 mps 757 mmHg 68%
    11:00 +10°C° 0 mm 2 mps 757 mmHg 66%
    12:00 +12°C° 0 mm 1 mps 757 mmHg 64%
    13:00 +12°C° 0 mm 2 mps 756 mmHg 63%
    14:00 +13°C° 0 mm 2 mps 756 mmHg 62%
    15:00 +13°C° 0 mm 2 mps 756 mmHg 61%
    16:00 +11°C° 0 mm 3 mps 756 mmHg 64%
    17:00 +11°C° 0 mm 3 mps 756 mmHg 67%
    18:00 +10°C° 0 mm 4 mps 756 mmHg 70%
    19:00 +10°C° 0 mm 4 mps 756 mmHg 71%
    20:00 +8°C° 0 mm 4 mps 756 mmHg 72%
    21:00 +8°C° 0 mm 4 mps 756 mmHg 73%
    22:00 +8°C° 0.1 mm 4 mps 755 mmHg 75%
    23:00 +7°C° 0.1 mm 5 mps 755 mmHg 76%

    29 April, Sunday

    Time Temperature Precipitation Wind Pressure Humidity
    00:00 +7°C° 0.1 mm 5 mps 754 mmHg 78%
    01:00 +7°C° 0.2 mm 5 mps 754 mmHg 80%
    02:00 +7°C° 0.2 mm 6 mps 753 mmHg 82%
    03:00 +7°C° 0.2 mm 6 mps 753 mmHg 84%
    04:00 +5°C° 0.2 mm 6 mps 753 mmHg 85%
    05:00 +5°C° 0.2 mm 6 mps 752 mmHg 86%
    06:00 +5°C° 0.2 mm 6 mps 752 mmHg 87%
    07:00 +6°C° 0.2 mm 7 mps 752 mmHg 86%
    08:00 +6°C° 0.2 mm 7 mps 752 mmHg 85%
    09:00 +8°C° 0.2 mm 7 mps 752 mmHg 84%
    10:00 +8°C° 0.5 mm 7 mps 752 mmHg 85%
    11:00 +8°C° 0.5 mm 7 mps 751 mmHg 85%
    12:00 +8°C° 0.5 mm 7 mps 751 mmHg 85%
    13:00 +8°C° 0.2 mm 7 mps 751 mmHg 86%
    14:00 +7°C° 0.2 mm 8 mps 750 mmHg 86%
    15:00 +7°C° 0.2 mm 8 mps 750 mmHg 86%
    16:00 +7°C° 0.1 mm 8 mps 750 mmHg 87%
    17:00 +7°C° 0.1 mm 8 mps 749 mmHg 88%
    18:00 +6°C° 0.1 mm 8 mps 749 mmHg 89%
    19:00 +6°C° 0.5 mm 8 mps 749 mmHg 90%
    20:00 +6°C° 0.5 mm 9 mps 748 mmHg 91%
    21:00 +5°C° 0.5 mm 9 mps 748 mmHg 91%
    22:00 +5°C° 3.2 mm 9 mps 748 mmHg 92%
    23:00 +5°C° 3.2 mm 8 mps 747 mmHg 93%

    30 April, Monday

    Time Temperature Precipitation Wind Pressure Humidity
    00:00 +5°C° 3.2 mm 8 mps 747 mmHg 93%
    01:00 +5°C° 2.7 mm 9 mps 747 mmHg 93%
    02:00 +5°C° 2.7 mm 9 mps 746 mmHg 93%
    03:00 +5°C° 2.7 mm 10 mps 746 mmHg 92%
    04:00 +5°C° 1.2 mm 10 mps 746 mmHg 92%
    05:00 +5°C° 1.2 mm 10 mps 746 mmHg 91%
    06:00 +5°C° 1.2 mm 10 mps 746 mmHg 91%
    07:00 +5°C° 1.3 mm 9 mps 746 mmHg 91%
    08:00 +5°C° 1.3 mm 9 mps 747 mmHg 91%
    09:00 +5°C° 1.3 mm 9 mps 747 mmHg 91%
    10:00 +5°C° 0.6 mm 9 mps 747 mmHg 91%
    11:00 +5°C° 0.6 mm 8 mps 748 mmHg 90%
    12:00 +5°C° 0.6 mm 8 mps 748 mmHg 90%
    13:00 +5°C° 0.2 mm 7 mps 748 mmHg 90%
    14:00 +6°C° 0.2 mm 7 mps 748 mmHg 90%
    15:00 +7°C° 0.2 mm 6 mps 749 mmHg 90%
    16:00 +7°C° 0.2 mm 6 mps 749 mmHg 90%
    17:00 +7°C° 0.2 mm 5 mps 749 mmHg 90%
    18:00 +7°C° 0.2 mm 5 mps 750 mmHg 90%
    19:00 +7°C° 0.1 mm 4 mps 750 mmHg 91%
    20:00 +6°C° 0.1 mm 4 mps 751 mmHg 91%
    21:00 +6°C° 0.1 mm 4 mps 751 mmHg 91%
    22:00 +6°C° 0.1 mm 4 mps 751 mmHg 91%
    23:00 +6°C° 0.1 mm 4 mps 751 mmHg 92%
    Show more